Погода в Токио

Япония     35°40′56″N   139°45′11″E
темп.,
°C
ветер,
м/с
пор.,
м/с
влажн.,
%
обл.,
%
осадки,
мм/ч
давл.,
гПа
погр.,
м
14 июня, пн
пн1400:00+22ююз4565100 1.9 1009454
03:00+21ссз1174100 3.6 1008217
06:00+22юв1271100 0.5 1008343
09:00+24ююв5570100 0.6 1008962
12:00+25ююв556097 0.0 1007931
15:00+25ю665189 0.1 10061085
18:00+24ю6765100 0.0 1006777
21:00+22ю567185 0.0 1007655
15 июня, вт
вт1500:00+22ю34763 0.1 1007545
03:00+21ю338025 0.1 1006483
06:00+22ю227934 0.1 1007487
09:00+25ююв226173 0.1 10071161
12:00+28ю444412 0.1 10061494
15:00+27ю654999 0.1 10061499
18:00+25ю6656100 0.0 1007991
21:00+24ю5665100 0.0 1008710
16 июня, ср
ср1600:00+23ююв4571100 0.0 1008619
03:00+22ююв3475100 0.1 1007559
06:00+21ююв4683100 5.1 1008356
09:00+21юв4681100 10.1 1008442
12:00+21юв4681100 3.4 1008508
15:00+21юв4679100 7.4 1008487
18:00+21юв2578100 3.1 1008412
21:00+21юв3676100 4.6 1009492
17 июня, чт
чт1700:00+21юв3577100 1.6 1008329
03:00+21в2476100 2.8 1007300
06:00+20св467999 0.3 1007334
09:00+20ссв4576100 1.6 1007392
12:00+20ссв5675100 0.4 1008653
15:00+20св5777100 0.8 1008654
18:00+19ссв4682100 1.3 1008483
21:00+19с457991 1.4 1008360
18 июня, пт
пт1800:00+19ссз347957 0.0 1008337
03:00+18ссз35832 0.0 1007314
06:00+19с45760 0.0 1007387
09:00+22ссв346273 0.0 10071130
12:00+25в335196 0.1 10061549
15:00+25вюв4450100 0.1 10041579
18:00+24юв5553100 0.0 10051195
21:00+21юв5565100 0.0 1006710